Weather History for Wausau, WI

Change the Weather History Date:

Thursday, April 19, 2012

  Actual Average Record
Temperature  
Mean Temperature 40 °F 46 °F  
Max Temperature 47 °F 57 °F 81 °F (1985)
Min Temperature 33 °F 35 °F 15 °F (1897)
Degree Days  
Heating Degree Days 25 19  
Month to date heating degree days 340 446  
Since 1 July heating degree days 6277 7667  
Cooling Degree Days 0 0  
Month to date cooling degree days 0 0  
Year to date cooling degree days 10 0  
Moisture  
Dew Point 33 °F    
Average Humidity 77    
Maximum Humidity 100    
Minimum Humidity 53    
Precipitation  
Precipitation 0.70 in 0.09 in 1.02 in (2005)
Month to date precipitation 1.88 1.61  
Year to date precipitation 5.43 5.31  
Snow  
Snow 0.40 in 0.10 in 2.20 in (1922)
Month to date snowfall 0.4 3.0  
Since 1 July snowfall 38.8 58.3  
Snow Depth T in    
Sea Level Pressure  
Sea Level Pressure 29.99 in    
Wind  
Wind Speed 6 mph (NE)    
Max Wind Speed 14 mph    
Max Gust Speed 18 mph    
Visibility 7 miles    
Events Rain , Snow    
T = Trace of Precipitation, MM = Missing Value Source: NWS Daily Summary

Daily Weather History Graph

Daily Weather History Graph

Search for Another Location

Airport:

Trip Planner

Search our weather history database for the weather conditions in past years. The results will help you decide how hot, cold, wet, or windy it might be!

Date:

Astronomy

Apr. 19, 2012 Rise Set
Actual Time 6:06 AM CDT 7:49 PM CDT
Civil Twilight 5:35 AM CDT 8:20 PM CDT
Nautical Twilight 4:57 AM CDT 8:58 PM CDT
Astronomical Twilight 4:16 AM CDT 9:39 PM CDT
Moon 5:02 AM CDT (4/19) 6:36 PM CDT (4/19)
Length of Visible Light 14h 45m
Length of Day
13h 43m
Waning Crescent, 2% of the Moon is Illuminated
Apr 19
Waning Crescent
Apr 21
New
Apr 29
First Quarter
May 5
Full
May 12
Last Quarter

Hourly Weather History & Observations

Time (CDT) Temp. Windchill Dew Point Humidity Pressure Visibility Wind Dir Wind Speed Gust Speed Precip Events Conditions
12:54 AM 43.0 °F 38.2 °F 35.1 °F 74% 30.01 in 10.0 mi North 8.1 mph - N/A   Clear
1:54 AM 39.9 °F 35.8 °F 32.0 °F 73% 30.00 in 10.0 mi North 5.8 mph - N/A   Clear
2:54 AM 37.9 °F - 30.9 °F 76% 30.00 in 10.0 mi Calm Calm - N/A   Clear
3:54 AM 36.0 °F 33.3 °F 30.9 °F 82% 30.01 in 10.0 mi NW 3.5 mph - N/A   Clear
4:54 AM 36.0 °F 33.3 °F 30.9 °F 82% 30.03 in 10.0 mi NW 3.5 mph - N/A   Clear
5:54 AM 36.0 °F 33.3 °F 30.9 °F 82% 30.03 in 10.0 mi North 3.5 mph - N/A   Clear
6:54 AM 37.0 °F - 30.9 °F 79% 30.06 in 10.0 mi Calm Calm - N/A   Clear
7:54 AM 37.9 °F 33.5 °F 30.9 °F 76% 30.09 in 10.0 mi NNE 5.8 mph - N/A   Mostly Cloudy
8:54 AM 39.0 °F 34.0 °F 30.0 °F 70% 30.07 in 10.0 mi NE 6.9 mph - N/A   Overcast
9:39 AM 41.0 °F 38.0 °F 30.2 °F 65% 30.05 in 10.0 mi NE 4.6 mph - N/A   Overcast
9:54 AM 42.1 °F 38.4 °F 32.0 °F 67% 30.08 in 10.0 mi NE 5.8 mph - N/A   Mostly Cloudy
10:05 AM 42.8 °F 40.1 °F 32.0 °F 66% 30.03 in 10.0 mi Variable 4.6 mph - N/A   Mostly Cloudy
10:19 AM 42.8 °F 37.0 °F 30.2 °F 61% 30.02 in 10.0 mi NE 10.4 mph - N/A   Mostly Cloudy
10:38 AM 44.6 °F 40.2 °F 30.2 °F 57% 30.03 in 10.0 mi NE 8.1 mph - N/A   Overcast
10:54 AM 43.0 °F 38.2 °F 30.9 °F 62% 30.05 in 10.0 mi NE 8.1 mph - N/A   Overcast
11:11 AM 44.6 °F 38.1 °F 30.2 °F 57% 30.00 in 10.0 mi NE 13.8 mph 18.4 mph N/A   Overcast
11:54 AM 44.1 °F 40.8 °F 32.0 °F 63% 30.06 in 10.0 mi NNE 5.8 mph - N/A   Overcast
12:54 PM 46.0 °F 41.0 °F 32.0 °F 58% 30.03 in 10.0 mi East 10.4 mph - N/A   Mostly Cloudy
1:54 PM 46.0 °F 41.9 °F 30.9 °F 56% 30.01 in 10.0 mi NE 8.1 mph - N/A   Mostly Cloudy
2:54 PM 46.0 °F 43.1 °F 33.1 °F 61% 30.03 in 10.0 mi ENE 5.8 mph - 0.00 in   Overcast
3:40 PM 42.8 °F 38.0 °F 33.8 °F 70% 29.97 in 5.0 mi East 8.1 mph - 0.02 in Rain Light Rain
3:54 PM 42.1 °F 37.1 °F 35.1 °F 76% 30.01 in 6.0 mi ENE 8.1 mph - 0.03 in Rain Light Rain
4:54 PM 39.0 °F 32.8 °F 36.0 °F 89% 29.99 in 4.0 mi East 9.2 mph - 0.10 in Rain Rain
5:41 PM 37.4 °F 32.1 °F 35.6 °F 93% 29.93 in 5.0 mi ENE 6.9 mph - 0.09 in Rain Light Rain
5:54 PM 37.0 °F 32.4 °F 35.1 °F 93% 29.98 in 4.0 mi ENE 5.8 mph - 0.12 in Rain Light Rain
6:54 PM 36.0 °F 29.6 °F 35.1 °F 97% 29.96 in 6.0 mi NE 8.1 mph - 0.07 in Rain Light Rain
7:37 PM 33.8 °F 29.6 °F 33.8 °F 100% 29.93 in 2.5 mi North 4.6 mph - 0.08 in Snow Light Snow
7:54 PM 33.1 °F 30.0 °F 33.1 °F 100% 29.99 in 1.5 mi North 3.5 mph - 0.12 in Snow Light Snow
8:36 PM 33.8 °F - 33.8 °F 100% 29.93 in 2.0 mi Calm Calm - 0.09 in Snow Light Snow
8:47 PM 33.8 °F 30.8 °F 33.8 °F 100% 29.93 in 3.0 mi NE 3.5 mph - 0.10 in Snow Light Snow
8:54 PM 33.1 °F 28.7 °F 33.1 °F 100% 29.97 in 4.0 mi NE 4.6 mph - 0.11 in Snow Light Snow
9:09 PM 33.8 °F 27.7 °F 32.0 °F 93% 29.92 in 3.0 mi ENE 6.9 mph - 0.01 in Snow Light Snow
9:26 PM 33.8 °F 27.7 °F 32.0 °F 93% 29.91 in 5.0 mi NE 6.9 mph - 0.02 in Snow Light Snow
9:54 PM 34.0 °F 27.2 °F 33.1 °F 96% 29.96 in 10.0 mi NE 8.1 mph - 0.03 in   Overcast
10:13 PM 35.6 °F 29.9 °F 33.8 °F 93% 29.91 in 8.0 mi NNE 6.9 mph - 0.00 in Snow Light Snow
10:20 PM 33.8 °F 28.6 °F 33.8 °F 100% 29.91 in 6.0 mi NE 5.8 mph - 0.01 in Snow Light Snow
10:54 PM 34.0 °F 28.0 °F 33.1 °F 96% 29.96 in 2.5 mi NE 6.9 mph - 0.03 in Snow Light Snow
11:05 PM 33.8 °F 29.6 °F 33.8 °F 100% 29.91 in 1.8 mi NE 4.6 mph - 0.02 in Snow Light Snow
11:17 PM 33.8 °F 29.6 °F 33.8 °F 100% 29.91 in 2.5 mi NE 4.6 mph - 0.03 in Snow Light Snow
11:54 PM 33.1 °F 30.0 °F 33.1 °F 100% 29.95 in 1.5 mi North 3.5 mph - 0.06 in Snow Light Snow